RH
100 100 100 100 100 82 96 94 87 64 100 81 100 100 98 67 52 42 39 32 44 59 50 24 5 4 8 13 73 100 97 100 52 100 83 64 97 100 100 77 100 100 94 69 71
100 100 100 100 74 85 100 97 92 100 79 58 85 100 97 93 75 35 37 37 47 55 57 26 6 5 7 9 35 72 55 74 78 93 57 73 98 99 100 100 89 85 90 83 73
100 100 100 100 100 100 98 98 77 95 87 53 100 100 89 100 64 47 36 37 46 69 66 36 10 5 6 9 53 90 57 50 64 67 100 92 81 100 100 100 100 100 96 97 62
100 100 100 100 100 100 100 100 90 97 67 60 95 100 100 100 90 61 31 38 43 66 82 54 16 7 5 9 12 26 70 50 77 92 98 90 96 93 88 100 100 88 74 63 60
100 100 96 100 100 100 100 100 90 81 63 56 59 100 88 79 93 99 34 40 43 74 100 70 28 10 5 6 12 16 28 66 73 97 100 88 99 66 65 79 93 88 98 100 100
96 92 90 93 100 100 100 94 99 84 62 49 56 100 88 96 100 89 62 45 37 43 84 70 48 24 7 6 8 16 23 60 67 75 95 80 95 88 62 57 70 90 87 69 70
92 89 82 79 84 100 100 100 100 82 66 48 57 99 94 100 88 100 91 59 33 40 93 98 63 28 11 6 6 12 26 41 71 67 85 86 85 100 89 93 93 97 86 69 52
59 82 82 75 73 94 100 100 100 90 79 56 53 82 100 100 94 100 99 90 44 46 85 100 73 42 15 8 7 7 11 21 37 62 65 69 58 63 62 59 52 48 47 39 36
49 69 60 66 75 87 100 100 98 95 83 60 50 64 100 100 78 88 100 100 79 58 50 90 88 51 14 9 7 8 8 8 14 22 34 44 49 34 14 19 18 18 18 14 14
40 41 41 70 81 100 92 82 85 81 78 64 54 56 94 100 95 100 94 95 97 72 56 67 92 61 30 13 9 8 9 10 9 8 7 8 8 9 9 9 11 12 12 13 13
50 35 28 53 83 94 92 81 79 76 90 77 59 47 90 100 100 100 84 100 92 68 100 65 97 75 31 12 12 13 14 13 12 11 11 10 10 11 12 12 12 12 11 12 13
87 60 33 33 62 80 84 60 64 67 64 79 65 48 80 100 100 88 100 78 63 71 74 100 100 82 54 20 15 20 21 16 18 16 14 16 18 17 17 18 17 17 17 18 18
75 94 73 42 37 51 81 70 40 70 49 63 78 44 62 96 100 100 100 75 97 69 53 100 97 94 74 39 27 27 38 29 26 24 20 20 22 29 28 29 26 26 26 25 24
14 71 73 65 64 35 33 57 46 47 65 52 71 42 62 98 100 100 100 93 100 89 52 63 100 100 84 70 47 29 32 52 32 33 36 29 32 31 36 40 44 43 37 32 27
14 17 49 70 65 63 46 41 36 34 63 59 50 46 36 86 100 100 100 100 100 95 65 64 100 100 98 86 72 46 32 50 59 52 42 53 34 41 38 42 45 45 49 50 36
18 14 14 21 51 65 63 65 55 44 74 62 64 55 37 97 100 100 100 100 100 100 70 72 100 100 100 100 94 79 49 44 46 61 54 54 70 60 46 44 47 34 31 34 37
29 21 18 16 14 43 58 59 67 59 98 96 91 76 64 94 100 100 100 100 100 100 97 65 100 100 100 100 100 98 78 58 53 43 59 53 63 86 72 52 37 44 35 33 35
42 32 26 20 15 15 34 50 59 58 71 100 100 100 99 100 100 100 100 100 100 93 100 78 89 100 100 100 100 100 100 97 84 72 66 68 76 84 71 43 53 41 49 42 41
55 41 32 27 19 15 15 32 63 78 79 98 100 100 100 100 100 100 100 100 100 100 99 100 100 100 100 100 100 100 100 100 100 95 88 89 99 99 82 57 77 57 52 53 52
80 49 37 32 25 18 12 12 24 58 96 99 100 100 100 100 100 100 100 100 100 100 100 100 99 98 100 100 100 100 100 100 100 100 100 100 93 58 98 56 88 96 79 58 53
84 52 34 34 29 21 15 13 12 67 68 98 100 100 100 100 100 100 100 100 100 100 100 100 100 100 100 100 100 100 100 100 100 96 100 100 98 77 55 77 99 100 100 97 96
71 43 34 32 28 29 22 17 12 11 19 70 100 100 100 100 100 100 100 100 100 100 100 100 100 100 100 100 100 100 100 100 100 98 100 100 100 100 89 81 100 100 100 100 100
54 49 39 30 25 36 32 21 16 14 15 21 24 99 100 100 100 100 100 100 100 100 100 98 99 100 100 100 100 100 100 99 100 99 100 94 100 100 100 100 100 98 100 100 99
48 64 34 34 33 35 41 26 24 17 30 70 80 100 100 100 100 100 100 100 100 100 100 100 100 100 100 100 100 100 100 98 98 100 100 100 95 100 100 100 100 100 100 93 92
37 34 48 45 36 35 38 43 31 24 21 20 42 98 100 100 100 98 97 100 100 100 100 96 83 94 100 100 100 100 100 100 100 100 100 100 86 93 100 100 100 100 100 100 100
41 38 48 41 38 42 37 35 37 36 35 39 70 67 83 100 100 100 99 100 100 100 100 100 87 85 93 100 100 100 100 100 100 100 95 100 100 100 82 100 100 100 100 100 100
43 53 50 42 49 47 44 41 39 29 28 41 29 54 68 98 100 100 100 100 100 100 98 93 79 89 84 99 99 98 100 100 100 100 99 90 100 100 90 88 100 100 100 100 97
Wind_Speed
55 54 51 48 48 45 41 37 37 32 34 32 29 32 36 40 45 46 51 55 58 60 57 67 70 57 19 36 47 43 43 47 45 34 34 36 20 13 9 14 8 8 15 17 15
67 62 56 56 56 52 50 43 35 31 39 44 38 26 28 43 36 46 50 53 56 57 54 65 67 61 30 13 36 31 54 52 47 32 41 35 24 16 15 7 10 13 13 15 17
70 67 59 58 57 55 51 46 42 35 34 37 31 32 37 32 35 45 51 50 52 53 52 58 61 63 33 3 27 35 44 55 40 40 33 34 26 22 20 17 16 15 12 12 15
67 66 64 61 57 56 53 48 44 35 39 39 34 35 28 28 37 43 48 46 46 50 49 51 55 57 45 9 31 23 51 52 40 35 25 26 24 24 23 21 19 17 24 20 29
70 68 66 62 60 60 58 49 48 46 44 43 38 32 33 35 41 28 40 46 43 43 44 48 51 53 51 28 16 22 47 44 35 32 20 28 24 26 29 22 20 27 23 30 23
74 69 67 62 61 59 58 57 51 48 45 45 38 31 31 28 30 27 42 39 41 39 41 42 45 48 51 40 10 20 39 44 38 37 26 32 24 28 29 31 32 31 32 33 38
77 72 70 69 65 61 58 57 50 49 48 45 40 31 32 19 28 37 32 31 38 40 34 36 42 44 45 47 31 3 34 42 34 33 30 28 29 20 30 37 38 41 42 45 46
74 75 67 67 67 63 57 55 51 49 49 46 44 36 32 27 26 32 34 24 35 39 35 33 39 40 37 43 39 31 3 35 37 34 36 28 29 36 37 32 38 41 46 49 54
80 74 71 69 65 63 61 57 52 50 47 48 49 39 30 29 27 26 28 28 33 38 32 28 32 34 30 36 39 35 32 18 11 32 36 40 38 40 29 26 23 24 28 22 24
71 72 70 71 66 61 58 51 53 51 50 50 49 41 34 33 26 31 29 36 31 36 36 27 25 31 28 31 35 38 34 35 27 20 12 7 8 10 11 11 14 17 15 13 14
71 71 68 73 72 66 63 60 58 54 53 49 48 44 38 35 28 31 30 33 34 39 27 28 21 26 23 28 30 31 37 33 29 26 20 18 17 18 16 14 11 8 11 14 17
65 66 64 71 76 75 67 57 63 62 56 54 47 45 42 34 35 28 34 36 33 26 27 30 25 18 21 23 26 25 27 31 30 23 22 21 20 16 14 13 12 13 16 19 23
68 63 59 63 71 72 77 72 64 68 57 55 52 46 47 41 42 36 35 38 39 25 28 31 25 16 16 17 22 22 21 24 24 21 19 18 20 20 17 18 17 17 19 21 22
66 67 62 62 58 63 63 75 63 63 63 59 56 49 50 43 40 39 39 33 31 27 33 28 27 21 15 10 17 18 17 14 20 20 14 15 17 20 20 22 23 24 24 26 27
64 60 59 61 59 58 54 52 56 63 67 61 57 55 54 49 45 41 42 33 44 37 37 26 30 27 22 13 9 12 13 13 10 14 16 12 15 18 20 24 26 29 30 31 31
67 65 61 60 60 57 54 50 49 57 58 60 63 61 56 52 47 47 43 39 40 41 36 27 29 29 27 20 11 9 8 10 12 11 13 17 14 14 21 23 26 26 28 29 31
70 68 63 61 56 53 53 52 48 50 53 60 64 61 60 57 53 52 45 44 38 40 31 28 31 28 31 28 25 17 13 8 10 15 14 16 19 14 20 25 28 30 33 35 38
71 70 66 61 58 51 51 50 50 49 49 58 60 61 60 57 55 56 47 45 43 43 41 36 30 36 33 30 32 30 27 21 18 15 18 20 20 19 25 30 31 35 36 41 43
74 71 67 65 60 55 50 45 46 47 47 54 55 54 59 59 58 57 55 47 49 45 42 41 39 36 37 32 33 36 33 29 29 27 29 27 25 25 30 37 36 38 40 45 45
77 74 71 65 61 57 49 47 47 46 54 58 60 61 53 59 60 65 59 55 50 49 45 45 46 38 39 38 35 37 39 32 33 30 32 34 31 25 36 37 40 41 45 44 48
79 74 69 67 62 56 50 50 49 50 50 60 66 64 58 56 63 64 56 59 52 57 49 48 50 47 41 40 38 36 42 37 35 36 38 35 39 31 32 40 42 45 49 51 56
80 74 68 65 61 55 54 56 51 52 54 56 55 68 69 64 65 65 70 59 52 60 52 41 47 54 47 43 41 44 40 40 42 41 46 45 44 43 40 40 41 45 51 54 56
78 75 73 64 53 53 58 55 50 49 50 56 60 62 68 72 66 68 70 67 58 60 56 58 51 53 53 44 43 47 45 42 43 41 53 48 46 46 48 48 49 43 48 52 55
82 82 73 65 57 55 59 55 52 51 48 49 51 58 63 76 67 71 69 71 67 65 56 59 61 60 57 51 43 48 48 44 49 45 43 47 38 40 40 46 52 52 52 55 58
86 78 73 64 58 54 57 58 55 52 50 51 56 60 61 68 69 68 70 73 73 68 65 67 68 67 61 60 53 45 48 45 47 51 39 52 48 45 35 45 58 63 62 67 68
87 79 77 70 66 64 62 58 57 56 51 50 51 50 53 62 69 69 72 77 75 75 70 69 72 70 70 65 64 62 52 53 50 51 50 52 52 53 48 53 55 57 61 64 70
88 84 80 73 66 63 59 61 61 56 55 54 49 49 51 53 65 74 77 74 75 77 78 72 73 74 73 72 69 58 62 55 51 57 57 57 60 60 59 62 62 63 66 66 67
Wind_Direction
256 253 258 260 262 264 268 276 284 290 299 308 311 313 323 334 334 336 342 346 349 352 5 7 11 12 24 173 177 162 170 176 170 169 178 169 182 170 180 198 184 212 235 254 252
248 248 251 251 257 263 263 267 275 294 285 290 311 322 327 325 334 334 339 343 347 351 358 12 9 12 24 176 168 178 168 176 171 181 177 180 190 184 185 187 227 234 240 275 266
249 248 247 251 255 259 264 262 267 283 289 292 303 305 312 324 334 330 331 337 345 348 353 9 14 19 20 73 165 202 192 176 182 181 190 194 193 181 181 203 217 226 201 269 281
244 248 250 249 253 257 261 260 261 263 273 286 287 301 296 311 325 330 332 336 343 345 347 4 17 14 23 23 203 204 192 184 185 185 201 204 200 201 194 204 212 236 237 269 286
246 248 250 249 251 254 258 260 263 265 272 279 287 296 289 301 319 332 329 335 339 348 345 357 9 15 23 35 216 218 193 190 187 194 200 206 222 226 226 215 219 245 247 273 284
245 248 248 250 253 251 255 258 260 262 266 275 280 289 288 298 320 324 328 331 339 347 344 354 5 15 21 33 42 219 205 200 196 208 210 214 225 232 231 237 242 256 257 269 281
244 245 245 249 250 250 251 255 254 258 263 269 275 276 289 297 303 309 323 327 335 338 345 350 2 17 19 27 40 219 216 213 218 220 234 228 235 250 238 240 248 266 277 286 294
244 241 244 247 247 247 248 251 249 254 258 264 267 272 282 273 291 308 307 315 327 331 342 346 355 9 26 23 44 45 346 234 232 233 239 253 271 263 280 278 281 277 286 278 283
243 240 245 244 242 244 242 245 248 252 254 258 263 268 272 266 273 307 305 306 317 322 337 344 349 6 27 39 32 48 51 49 253 254 256 259 262 276 281 287 302 298 298 312 307
243 242 244 238 237 234 236 239 245 249 250 254 259 260 266 258 265 284 290 296 303 317 327 337 346 5 15 33 40 33 45 48 51 50 53 42 36 29 22 6 351 354 355 338 339
246 242 239 236 234 233 233 240 243 249 247 250 252 256 257 258 258 275 281 280 298 307 318 329 337 360 22 48 48 43 34 40 44 47 50 50 41 36 28 14 356 358 338 343 343
245 244 241 238 236 235 234 238 244 246 247 249 248 250 250 250 251 257 268 273 295 297 315 306 322 350 8 38 41 45 40 38 36 45 43 36 26 24 22 16 1 351 348 343 340
244 244 243 241 235 236 235 238 242 241 246 246 246 244 246 247 248 249 266 273 284 285 305 305 307 324 353 26 32 45 37 40 42 43 38 30 22 12 10 3 358 353 342 340 342
245 246 242 241 239 237 237 238 240 238 242 244 243 246 246 248 248 240 254 264 269 272 292 302 297 304 327 2 23 26 38 37 26 26 26 20 5 5 356 351 351 344 335 337 336
242 242 243 242 241 238 236 235 237 240 236 238 240 244 244 248 236 240 252 251 267 276 278 291 290 299 310 317 10 13 19 22 9 7 6 353 360 354 349 341 338 335 335 336 330
239 241 244 243 242 239 234 231 231 230 229 233 236 237 240 241 232 236 242 241 260 275 268 279 283 289 294 296 291 314 341 2 354 337 337 331 328 325 345 335 329 331 328 327 325
236 238 240 242 242 239 235 231 227 227 229 229 229 232 235 237 233 230 234 243 250 275 266 268 273 279 289 294 292 287 283 312 342 343 319 330 321 320 314 325 327 322 321 321 319
233 236 236 240 241 238 233 231 228 224 232 235 231 232 229 231 232 230 233 243 242 249 261 267 268 277 281 291 293 287 292 285 291 302 329 321 316 318 315 327 317 322 318 318 321
233 234 236 236 238 237 233 227 226 223 226 232 231 236 232 231 228 229 228 233 237 247 249 257 264 267 273 278 293 290 286 292 290 299 303 305 319 316 315 316 315 313 318 315 317
231 231 233 233 234 236 231 229 225 224 226 226 225 228 233 235 227 226 229 233 234 244 250 255 255 258 271 274 283 285 292 288 294 301 302 302 296 308 305 310 307 307 309 316 319
228 229 231 232 232 234 232 230 226 222 229 228 225 225 230 235 225 226 228 239 236 240 242 250 251 259 266 275 277 281 293 291 288 299 297 301 300 297 311 304 303 306 306 311 312
225 227 228 229 230 228 232 232 226 227 227 230 228 227 228 225 230 226 228 230 238 244 239 250 256 255 259 274 277 281 285 289 291 294 294 295 294 295 301 305 304 303 302 305 308
223 223 227 229 228 226 231 234 230 231 226 229 230 227 229 230 231 229 226 230 232 236 241 239 242 254 257 267 278 276 281 282 293 299 289 298 296 302 299 300 300 304 306 308 307
220 221 226 228 226 227 228 233 233 233 226 230 234 234 233 232 236 232 232 235 235 235 237 240 244 244 250 255 269 275 276 277 282 291 289 288 295 297 306 309 302 300 305 310 307
221 223 223 225 229 228 230 230 231 233 229 231 233 234 234 230 231 234 234 238 237 238 238 240 241 244 246 254 258 266 272 277 284 282 286 289 291 293 292 297 302 306 307 303 304
220 221 222 223 227 226 227 231 230 231 231 231 235 235 237 233 233 236 240 237 238 242 241 242 242 244 251 251 257 264 268 274 280 277 283 284 293 294 291 287 291 296 299 297 298
219 219 220 221 222 223 225 228 229 232 235 234 237 239 238 237 238 240 243 247 244 245 242 243 244 247 249 254 257 263 265 269 277 280 281 281 282 288 290 291 292 294 295 295 300